Location: Croagnes
(43.9363°N, 5.3265°E)
Time: 18:01:57
(UTC+00:00)

Cosmos 1943 Rocket - Pass Details

Date: 06 June 2020
Orbit: 810 x 845 km, 71.0° (Epoch: 13 July)

Event Time Altitude Azimuth Distance (km) Brightness Sun altitude
Rises 19:52:56 0° 185° (S) 3,330 5.0 -5.8°
Reaches altitude 10° 19:55:24 10° 180° (S) 2,407 4.2 -6.2°
Maximum altitude 20:00:39 47° 108° (ESE) 1,089 2.4 -6.9°
Drops below altitude 10° 20:05:59 10° 36° (NE) 2,446 4.7 -7.6°
Sets 20:08:31 0° 31° (NNE) 3,389 5.5 -7.9°
